Wind_Speed
2 6 6 5 4 1 2 3 4 3 13 17 15 14 14 12 9 8 7 3 3 8 8 8 12 11 8 6 4 4 3 3 2 2 2 2 2 2 2 3 5 7 9 9 9 8 8 8 8 8 8 7 7 7 7 7 7 8 8 8 8 9 9 9 9 9 9 10 11 12 12 13 14 14 14 15 15 15 15 15 15 15 15 16 16 16
3 6 4 4 3 3 4 5 1 10 17 16 14 14 12 10 9 8 6 3 2 5 6 7 11 10 7 5 3 3 3 2 1 1 1 1 1 1 1 3 5 7 9 9 9 8 7 7 7 7 6 6 5 5 5 5 6 7 7 7 7 8 8 8 8 9 9 10 11 12 13 13 14 14 14 14 14 14 15 15 15 16 16 16 17 17
6 5 6 8 4 2 3 2 11 18 16 14 12 11 10 9 9 8 8 6 4 5 6 7 9 8 5 4 2 1 1 1 0 1 1 1 1 1 3 4 6 7 8 8 8 8 7 6 6 6 5 4 3 4 4 5 6 6 6 7 7 7 7 8 9 9 9 10 11 11 12 12 12 13 13 14 14 15 16 16 17 17 18 18 19 19
6 3 7 5 4 2 6 8 15 17 12 11 10 8 8 6 7 5 6 9 9 7 8 9 8 5 3 2 1 1 0 1 2 3 3 3 3 4 5 6 7 8 9 9 9 9 8 7 6 5 3 2 3 4 5 5 6 6 6 7 7 8 8 8 9 9 10 10 10 11 11 11 12 13 14 15 15 16 17 17 18 18 19 19 20 20
7 7 6 1 4 7 14 12 13 13 9 9 8 8 9 7 9 9 8 12 13 10 7 8 6 3 1 1 2 2 1 3 3 4 5 5 6 6 6 7 8 10 11 11 10 10 9 7 6 4 2 1 2 3 4 5 6 6 6 7 7 8 8 9 10 10 10 11 11 11 12 13 13 14 15 15 15 16 17 18 19 19 20 21 21 22
9 10 6 4 6 9 12 9 5 7 10 8 4 4 13 15 15 16 14 11 10 6 2 3 4 3 2 3 4 3 3 4 5 6 7 7 8 8 8 8 10 10 11 11 10 10 9 7 5 3 1 1 2 3 5 5 6 7 7 7 8 8 9 9 10 10 10 11 11 11 12 13 13 14 15 15 16 17 18 19 20 21 21 22 23 23
7 9 5 6 8 7 10 9 4 2 10 9 3 2 13 20 18 16 12 6 6 5 2 2 2 2 2 4 4 3 4 6 5 8 10 10 9 9 9 11 11 11 11 11 10 10 9 7 5 4 3 3 4 5 6 7 7 8 8 8 9 9 10 10 10 11 11 12 12 12 13 13 14 15 16 17 18 19 20 20 21 22 22 23 23 24
6 9 9 8 8 6 8 7 5 4 6 7 2 4 10 16 17 14 8 6 7 5 3 1 2 1 4 3 2 2 4 7 7 10 11 11 10 9 11 12 12 13 13 12 11 10 9 8 7 6 6 6 6 7 8 8 9 9 9 9 10 10 10 11 11 12 12 13 13 14 15 15 16 17 18 19 20 20 21 21 22 22 23 23 24 24
5 9 9 6 7 7 3 2 4 4 9 6 6 7 5 6 8 9 7 8 7 5 4 3 6 1 4 2 2 2 4 10 12 13 12 11 11 10 11 13 14 14 14 14 13 12 11 10 9 8 8 8 8 9 9 9 9 10 10 10 11 11 11 11 12 12 12 13 14 15 16 17 18 19 19 20 21 22 23 23 23 24 24 25 25 25
3 6 6 5 6 6 4 3 5 3 10 10 10 9 5 4 5 6 8 8 5 3 3 5 7 1 4 4 4 4 5 11 12 10 8 9 11 11 12 14 16 16 16 16 15 14 13 12 11 10 10 9 10 10 10 10 10 11 12 12 12 12 12 12 13 13 13 14 15 16 17 18 19 20 21 22 23 23 24 24 24 25 25 26 26 27
4 4 5 6 5 2 3 7 4 7 16 17 12 9 8 7 7 6 6 5 5 3 3 4 6 3 2 4 6 5 3 5 6 6 5 7 11 12 14 16 18 18 18 18 18 17 15 14 12 12 11 11 11 11 11 11 12 13 13 14 13 14 14 14 14 14 15 16 16 17 18 19 20 22 23 23 24 24 24 25 24 25 26 26 27 28
7 6 4 4 7 5 2 10 11 10 13 11 8 8 8 7 7 6 4 2 5 4 3 3 5 3 3 2 3 4 2 0 3 4 5 9 13 15 18 20 20 21 21 21 20 18 16 15 14 13 12 12 12 12 12 12 14 15 15 16 16 15 15 16 16 16 16 17 18 19 20 21 21 23 24 24 25 24 24 25 25 26 27 28 29 30
7 6 6 5 8 12 5 7 7 5 4 4 6 6 7 7 5 4 3 3 3 2 3 2 2 2 4 1 2 5 5 4 6 5 5 8 15 20 22 24 24 24 24 22 20 18 17 16 15 14 13 13 13 13 13 14 15 16 17 17 18 17 16 17 18 18 18 18 19 20 21 22 23 24 25 25 26 26 26 27 27 28 29 30 31 32
3 3 11 8 6 13 9 4 6 4 3 3 4 3 6 7 6 5 3 1 1 2 3 2 2 2 3 1 2 4 3 3 5 7 8 8 11 18 21 24 26 25 23 22 20 19 19 17 15 14 14 13 14 14 15 16 16 17 17 18 18 17 16 17 18 19 19 19 20 21 22 23 24 25 26 27 28 28 28 29 29 30 31 32 33 33
4 4 9 7 4 11 9 4 2 2 3 2 2 1 3 3 2 5 3 1 2 3 3 1 1 2 1 1 2 2 1 3 5 8 10 10 11 14 17 21 25 25 23 22 21 20 20 18 16 15 15 14 15 15 16 17 17 18 17 17 17 16 14 16 18 19 20 20 21 22 23 25 26 27 28 29 30 30 30 31 31 32 33 34 34 35
4 3 3 3 5 8 7 4 3 2 2 2 2 2 1 1 1 3 2 2 2 2 3 1 2 2 1 1 2 3 4 6 5 5 8 9 10 13 16 18 21 23 23 22 22 22 20 18 17 17 17 17 17 17 17 17 18 18 18 17 16 15 15 16 19 20 21 22 23 24 26 27 28 29 30 31 32 32 32 32 33 34 34 34 35 36
3 3 2 3 3 4 6 6 5 3 0 1 0 1 2 2 1 4 3 2 1 2 3 1 3 2 1 1 1 3 4 4 3 3 5 7 8 11 14 18 20 22 23 22 23 22 21 20 20 20 20 19 19 19 18 18 18 18 18 18 17 18 18 19 21 22 23 25 27 28 29 30 31 31 32 33 34 34 34 34 34 35 35 35 35 36
2 4 2 3 2 3 6 6 6 6 2 1 1 4 3 1 1 1 2 2 1 2 2 0 3 2 2 1 2 1 1 1 1 2 4 6 10 13 15 17 19 21 22 23 23 23 22 22 22 22 22 21 20 20 20 20 20 20 20 20 20 21 22 23 24 25 26 28 29 31 31 32 33 34 34 35 35 35 35 35 35 36 36 35 36 37
1 4 2 2 0 1 4 3 1 7 10 6 5 5 2 1 1 1 1 2 2 2 2 1 2 2 2 1 1 1 3 2 0 2 4 7 11 14 17 18 18 19 21 22 23 23 23 22 22 22 22 22 22 22 22 22 21 22 22 22 23 25 26 26 28 29 30 31 33 34 35 36 37 37 37 38 38 37 38 38 37 36 36 36 36 38
2 2 3 2 3 3 1 2 1 4 8 7 6 3 1 2 1 1 1 1 1 2 2 1 1 1 2 1 2 3 3 3 3 2 3 6 8 11 16 19 19 20 21 22 22 23 23 23 23 23 23 23 23 23 24 24 24 24 24 25 26 28 29 30 31 32 34 35 36 37 38 38 38 38 38 38 38 39 39 39 38 37 37 36 38 39
3 1 3 2 1 2 1 4 3 3 3 1 1 1 2 2 1 1 2 2 1 1 2 2 2 1 1 1 2 4 4 3 3 4 4 5 6 8 11 16 18 20 22 23 23 24 25 25 25 25 25 25 25 25 25 25 25 25 26 27 29 30 32 33 33 34 34 34 35 36 36 36 36 36 36 37 37 38 39 39 38 37 37 37 38 40
3 2 3 2 2 3 3 3 2 3 3 2 2 2 2 1 1 1 3 1 1 1 0 1 2 1 1 1 2 3 3 3 4 5 7 7 7 7 7 9 11 14 16 18 19 21 22 23 24 25 26 26 27 26 25 25 26 26 27 27 29 30 31 31 30 30 30 30 31 32 33 34 35 35 36 37 37 37 37 36 35 35 35 37 39 41
2 2 5 4 2 2 2 1 0 2 3 3 2 1 1 0 1 1 1 3 2 1 1 1 1 2 1 2 3 3 3 5 6 7 9 10 8 7 7 7 8 10 11 12 14 16 17 19 20 22 23 24 25 25 24 24 24 24 25 25 26 27 27 26 25 26 27 28 30 31 32 34 35 36 36 36 36 35 33 32 32 32 34 38 40 42
1 1 3 2 0 1 1 2 1 2 3 3 1 1 0 1 1 2 1 2 2 1 1 1 1 1 2 2 2 4 6 9 10 10 11 11 11 11 11 10 10 10 11 12 14 15 17 18 20 21 22 22 22 22 21 21 21 21 22 23 23 24 23 23 24 26 28 29 30 31 32 33 34 35 35 34 32 31 31 31 32 34 37 39 41 41
1 0 1 2 2 2 2 3 3 2 2 2 0 1 1 2 2 1 1 1 1 1 0 0 2 1 2 2 2 4 5 8 9 8 9 12 14 13 11 10 10 11 12 13 14 16 17 18 20 21 22 22 21 20 19 19 20 20 21 21 22 22 23 25 26 28 29 30 32 33 33 33 33 33 32 31 31 31 32 34 36 37 38 39 40 41
1 1 1 0 2 2 2 2 1 1 2 0 1 1 1 1 1 1 1 1 1 2 0 1 1 2 2 1 3 4 3 5 5 6 8 10 10 8 8 9 10 11 13 13 14 15 16 17 18 19 20 20 20 20 19 19 19 19 20 20 21 23 25 27 28 29 30 31 33 34 34 32 32 32 32 32 34 35 36 36 37 38 38 39 40 40
3 2 2 0 0 2 3 2 2 2 2 2 1 3 2 1 1 1 1 1 1 4 3 3 1 1 1 3 3 4 4 4 6 8 9 8 6 7 10 11 12 12 12 13 14 15 15 16 16 17 17 17 17 17 17 17 17 19 20 21 23 25 26 27 28 30 31 33 34 35 33 31 32 33 34 35 35 36 36 36 37 38 39 39 39 39
3 2 2 0 1 3 3 3 3 3 1 2 2 3 3 2 1 2 2 0 3 4 1 1 2 2 2 1 3 4 4 5 7 8 8 9 10 11 12 12 12 13 14 14 14 13 14 16 16 16 16 16 16 15 15 16 17 19 21 23 25 26 26 28 29 31 32 34 35 35 33 32 33 33 33 34 34 35 36 36 37 38 38 38 38 38
1 2 2 0 2 2 3 3 3 2 1 0 1 3 3 3 4 4 2 2 4 3 1 2 3 5 5 3 3 4 4 7 9 9 9 11 12 12 12 12 14 15 15 13 12 13 14 15 16 16 16 16 16 15 16 17 19 20 23 24 25 26 27 29 31 32 34 36 36 35 34 34 33 32 32 33 34 34 35 35 36 36 36 36 36 36
1 2 2 1 1 3 3 2 1 1 1 1 3 3 4 4 5 5 3 2 3 4 3 0 4 9 9 7 9 8 8 9 10 10 11 13 13 12 12 14 16 16 14 11 12 14 15 15 16 16 17 17 17 17 17 19 20 22 24 25 26 27 29 30 32 34 36 36 36 35 34 33 31 31 32 32 33 33 33 34 35 35 35 35 36 36
1 1 2 2 1 2 3 2 2 1 0 2 4 4 4 3 4 5 3 1 2 5 4 2 5 9 7 6 9 10 9 10 10 11 13 13 11 11 14 17 18 16 13 13 15 17 17 16 17 17 18 19 18 18 19 20 22 24 25 27 27 28 29 31 33 35 35 35 34 33 32 31 31 31 31 31 31 32 33 33 34 34 35 36 37 38
3 1 1 1 1 1 2 2 2 2 0 2 5 6 7 5 3 4 4 4 5 3 2 3 3 4 2 1 5 8 8 10 11 12 13 13 12 13 17 18 16 14 15 17 18 18 18 18 18 18 18 19 18 19 20 22 24 26 27 28 28 28 30 32 33 33 33 32 32 31 30 30 30 30 30 30 31 32 33 33 34 35 37 38 39 39
2 1 1 1 0 1 2 3 3 3 2 1 2 3 8 8 5 3 3 6 8 6 4 3 2 1 1 0 3 5 6 8 11 11 13 14 16 17 17 15 14 15 17 19 19 19 19 19 19 20 20 20 20 20 22 23 25 28 28 28 28 30 31 31 31 31 31 30 29 29 29 29 29 30 30 31 31 32 34 35 36 37 38 39 40 40
2 1 1 1 0 1 1 2 1 1 0 1 2 2 4 4 6 6 5 7 10 9 5 4 3 2 3 4 5 7 9 11 13 14 14 16 18 17 14 13 15 18 19 19 19 20 20 21 21 21 21 21 21 22 23 25 27 29 29 29 30 30 30 30 29 29 28 28 28 28 28 29 29 30 31 32 33 35 35 36 37 38 39 40 41 42
1 2 1 0 1 0 1 1 1 0 1 1 1 2 1 2 3 7 9 7 10 12 10 9 9 8 8 10 12 15 16 15 16 16 15 15 14 12 12 13 17 19 19 20 22 22 22 22 23 23 23 23 22 22 24 25 27 29 29 29 29 28 28 28 27 27 26 26 27 27 27 29 30 31 33 34 35 36 37 37 38 38 39 41 42 44
1 2 1 0 1 1 0 1 0 1 1 0 0 2 1 2 1 4 8 7 10 12 11 10 11 12 15 17 16 16 17 17 18 18 16 12 9 10 14 17 20 21 22 24 24 23 23 24 24 25 25 24 24 23 23 24 26 28 28 28 27 26 26 26 25 25 25 26 26 27 28 29 31 33 34 35 36 36 37 38 38 39 41 43 45 46
1 1 1 1 1 1 0 1 3 3 1 1 1 2 3 2 2 1 3 2 5 9 12 10 8 12 17 17 15 14 16 16 14 12 11 10 10 14 17 20 22 24 25 24 22 22 23 24 24 25 24 24 23 21 21 23 25 27 27 26 25 25 25 25 24 25 25 26 27 28 29 31 33 34 35 35 36 37 37 38 39 41 42 45 47 47
2 1 1 0 1 1 0 1 2 1 0 1 1 2 3 2 1 1 2 1 2 8 15 12 7 10 13 13 12 11 11 10 8 5 7 12 15 18 20 23 25 25 24 22 21 22 23 23 24 24 23 22 21 20 21 24 25 26 26 25 25 25 24 24 24 25 26 26 27 28 30 31 33 34 35 35 36 37 38 39 40 42 44 46 47 47
2 2 0 1 1 1 0 0 1 1 1 0 2 2 3 3 2 1 2 1 2 7 13 14 12 13 13 13 11 8 6 7 6 4 10 17 21 22 24 26 25 23 22 22 22 23 24 24 24 23 22 21 21 21 22 24 25 25 25 24 24 24 23 23 24 25 26 26 27 29 30 32 33 34 35 36 36 37 38 40 42 43 45 45 45 46
2 2 1 1 1 1 1 0 1 2 1 1 1 3 4 4 3 1 3 1 3 4 8 12 13 13 12 12 10 4 3 7 9 12 19 24 26 26 26 26 24 23 23 23 23 23 24 24 24 23 22 21 20 21 22 23 24 24 24 23 23 22 22 23 24 25 26 26 28 29 30 32 33 34 35 35 36 37 39 41 42 43 44 44 44 45
2 2 1 1 1 1 1 1 3 2 1 1 3 7 8 5 2 2 2 2 3 1 3 7 11 12 13 14 11 8 10 15 20 24 26 27 27 28 27 25 24 24 23 23 21 21 22 23 23 22 21 20 20 21 21 22 23 23 23 23 22 22 23 24 24 25 26 27 28 29 31 32 33 34 34 35 36 38 40 41 42 42 43 44 44 44
1 1 1 1 1 1 0 1 2 2 2 5 8 9 8 3 0 1 1 2 2 5 7 8 11 14 15 16 17 18 21 23 25 27 27 28 29 29 27 25 24 23 22 21 20 20 21 23 23 22 21 20 20 20 21 22 22 22 22 22 21 22 23 24 25 25 26 27 28 30 31 32 33 33 34 35 37 39 40 40 41 41 41 42 43 45
2 1 1 1 2 1 1 1 2 3 3 12 13 7 5 5 1 3 5 7 9 11 12 13 16 19 19 19 21 23 24 26 27 28 29 30 30 29 28 26 24 22 21 21 20 20 21 23 23 22 21 20 19 19 20 21 21 22 22 21 21 22 23 24 25 26 27 28 29 30 31 32 33 33 35 36 38 39 40 40 40 41 41 42 43 46
3 2 1 1 3 2 1 1 1 3 7 21 17 5 6 9 9 11 12 15 19 22 20 19 20 21 19 20 23 25 25 27 28 29 30 31 31 30 29 27 25 23 22 21 21 20 20 22 23 23 21 20 19 19 20 21 21 22 22 21 22 23 24 25 26 27 27 28 30 31 31 32 33 34 35 37 38 39 40 40 40 41 42 42 44 46
4 3 0 1 4 3 4 7 6 3 4 18 19 15 15 16 17 19 20 22 25 25 23 21 21 19 17 19 22 25 27 27 27 29 30 31 31 30 29 27 25 23 22 21 20 19 20 21 22 22 21 19 18 18 19 20 21 22 22 22 23 24 24 26 26 27 28 29 30 31 32 33 34 35 35 37 38 39 39 40 41 43 43 44 45 46
4 4 2 1 2 5 12 20 22 19 18 19 21 22 23 24 23 24 25 25 22 19 18 19 19 19 19 20 22 25 26 26 27 29 30 30 30 29 28 27 25 22 21 21 20 19 20 20 21 21 21 19 18 18 19 20 21 22 23 23 24 25 25 26 27 28 28 29 30 31 33 34 36 36 36 37 37 38 39 40 42 43 44 45 45 45
4 7 5 2 1 3 6 8 11 14 18 21 22 22 22 21 19 17 18 19 18 18 18 19 20 21 22 22 23 23 25 25 26 28 28 28 28 28 26 25 24 22 21 20 19 19 20 20 20 20 21 20 18 18 19 20 21 22 23 24 24 25 26 27 27 28 29 29 30 32 33 35 36 37 38 38 38 39 40 41 41 43 45 45 45 43
3 7 5 3 3 4 7 13 20 24 25 23 22 20 16 13 12 11 13 17 20 21 21 22 22 23 23 22 21 22 24 25 25 25 26 27 27 27 25 24 22 21 20 19 19 19 19 19 20 20 21 21 19 19 20 21 21 23 23 24 25 25 26 27 28 28 28 29 31 33 34 35 36 37 39 40 40 41 42 41 41 42 44 45 43 39
5 5 4 2 3 6 11 19 25 24 18 13 10 9 11 14 15 16 19 22 24 26 26 25 23 21 22 22 21 21 24 24 22 22 24 27 27 25 24 23 21 21 20 19 19 19 19 19 20 21 22 21 20 20 20 21 22 23 24 24 25 26 26 27 27 27 28 29 31 33 34 35 37 38 40 41 42 42 42 42 42 43 43 44 41 34
7 4 3 2 3 4 6 10 9 6 7 12 12 10 13 16 18 21 25 27 28 27 25 22 21 21 21 22 22 22 23 22 20 20 23 26 26 24 23 22 21 21 20 20 19 19 19 20 21 22 21 20 20 20 21 22 22 23 24 24 25 26 26 27 27 27 28 29 31 33 34 36 37 39 41 43 44 44 44 43 43 43 42 41 38 32
17 11 9 8 6 7 12 15 12 7 13 22 21 18 19 22 25 28 29 28 26 23 20 20 22 23 22 22 21 21 21 19 19 20 22 24 23 22 22 21 21 21 21 20 20 20 20 21 21 22 21 20 20 21 22 22 23 23 24 25 25 25 25 26 26 27 28 30 31 33 34 36 38 40 42 43 44 45 46 46 46 44 40 37 35 32
Wind_Direction
112 140 138 140 142 131 8 331 284 167 126 120 118 117 113 103 91 99 104 60 47 74 67 93 114 123 125 125 132 135 137 135 137 134 98 72 78 68 75 126 132 131 129 124 119 118 116 113 109 105 100 93 87 80 74 68 60 52 46 40 37 33 30 25 21 17 12 8 7 5 3 360 359 359 355 352 351 349 348 346 344 342 341 341 340 340
131 131 87 8 356 325 307 276 204 109 109 101 102 109 99 96 95 85 84 52 35 92 91 107 111 106 109 116 121 147 169 165 142 154 131 92 92 93 164 159 152 146 140 134 131 131 127 123 119 114 107 102 95 85 73 60 49 41 36 29 26 24 20 14 11 7 2 359 359 359 357 355 354 352 349 346 344 343 342 341 339 338 339 338 338 338
127 105 26 354 318 283 303 207 116 103 100 96 102 111 101 106 106 75 57 57 61 104 121 131 114 97 93 97 109 158 191 174 188 250 225 179 190 207 191 173 163 157 149 143 143 145 145 141 136 130 126 117 94 66 47 34 27 22 16 12 10 7 2 358 355 352 349 347 349 352 350 348 346 343 340 339 339 340 338 337 336 336 336 335 334 334
116 48 359 337 275 149 91 102 114 106 101 109 114 117 116 128 121 86 63 69 67 87 126 135 109 90 98 93 152 186 265 258 255 266 254 231 225 215 200 185 173 166 160 158 160 161 161 161 158 150 144 108 60 33 19 9 3 1 357 355 352 348 346 344 342 341 341 341 343 344 342 340 340 338 337 338 338 337 334 333 333 332 331 330 330 329
66 11 352 261 214 128 108 108 115 112 107 109 112 121 127 117 98 102 111 98 83 79 108 126 109 103 146 177 195 170 219 249 246 252 251 244 236 223 210 198 185 176 172 171 172 174 175 175 175 170 164 60 22 359 350 343 338 338 337 336 334 334 334 334 336 338 338 340 341 341 339 339 338 336 335 335 332 328 327 328 328 328 327 328 328 327
34 5 358 120 135 113 110 112 98 109 117 103 65 108 127 118 107 119 131 117 98 89 85 122 139 161 173 215 213 187 220 240 232 239 246 241 237 234 224 209 197 188 185 185 183 185 188 187 190 197 218 293 322 317 318 317 316 316 315 318 322 325 329 330 332 334 335 337 338 337 336 333 330 327 326 325 323 322 323 325 324 324 325 325 325 325
7 1 21 96 112 105 107 106 20 30 127 118 22 71 130 126 124 139 150 130 107 116 139 198 194 153 161 216 216 192 243 255 242 240 241 233 232 235 228 216 206 201 199 199 198 198 199 201 209 222 246 273 284 290 297 298 299 303 306 313 318 320 323 324 325 328 330 331 330 327 324 322 321 320 321 321 320 321 321 321 321 321 321 321 321 321
336 4 34 66 88 94 102 97 344 331 120 115 97 138 138 129 133 153 157 116 108 112 136 232 321 138 169 208 162 130 257 262 250 241 233 223 224 229 228 222 214 211 209 207 208 208 212 219 228 239 251 263 274 280 285 290 294 298 302 307 311 312 314 316 318 321 323 323 321 319 318 318 318 318 318 318 318 318 318 318 318 318 317 316 316 316
349 18 26 29 65 74 68 351 329 52 88 100 121 122 112 106 135 153 121 105 127 136 124 9 345 202 165 137 118 146 238 242 239 234 223 213 217 222 225 224 218 213 210 210 214 217 223 231 238 248 255 262 271 275 280 286 291 294 298 300 302 303 304 307 311 313 315 316 315 316 316 317 317 317 317 317 317 316 317 317 316 315 314 314 314 312
31 33 18 8 51 59 35 324 294 56 93 119 120 106 109 99 101 117 105 112 148 155 107 17 346 263 169 149 162 183 229 234 229 227 220 210 213 219 222 221 217 213 211 213 218 223 229 235 243 250 257 263 268 273 280 285 291 292 294 294 293 295 298 301 306 309 311 312 313 314 316 317 318 317 317 317 317 316 315 314 315 314 314 315 316 315
65 40 27 31 34 337 41 55 28 89 115 133 132 119 128 113 84 82 86 112 156 161 93 28 347 319 197 167 178 193 219 235 224 219 215 207 211 219 223 221 216 213 213 216 222 227 232 238 245 252 257 264 268 274 282 287 290 290 288 289 288 291 296 300 304 306 308 310 312 314 316 317 317 316 316 315 315 314 313 313 314 315 317 319 321 321
54 38 34 26 20 344 80 80 63 88 118 139 147 128 114 101 96 94 80 146 183 174 95 36 343 306 238 176 166 200 192 171 228 220 206 204 206 213 220 219 213 212 214 219 225 229 235 240 246 253 258 264 270 278 286 287 286 285 286 287 287 290 294 298 300 302 305 307 310 313 314 315 316 315 314 313 313 314 312 313 316 318 320 322 324 325
35 27 14 351 26 19 31 105 87 94 125 154 154 132 113 116 127 127 129 175 190 140 76 23 339 283 257 266 144 199 210 217 230 229 220 213 205 207 214 215 212 214 217 222 229 232 238 243 247 253 260 267 275 283 286 285 285 286 288 287 287 288 288 293 298 300 303 306 309 311 311 314 314 313 313 312 313 314 313 314 316 317 318 320 322 323
43 40 11 354 10 6 3 101 120 118 123 141 141 123 125 135 145 149 151 179 179 104 71 7 319 249 259 276 146 170 181 224 245 245 241 239 219 209 212 215 216 218 221 226 233 237 241 245 249 256 263 272 280 284 282 283 287 288 289 287 287 289 288 291 296 300 303 306 308 309 310 312 311 311 311 311 312 313 312 312 312 313 314 316 318 319
87 82 9 356 341 347 0 37 66 85 84 73 7 358 129 137 147 153 162 153 133 112 85 74 252 236 239 62 88 87 41 297 284 265 247 250 244 224 219 222 221 222 226 231 237 241 245 249 253 258 265 275 281 282 280 282 286 288 289 289 288 292 294 294 297 301 304 306 307 306 307 309 308 308 308 308 310 310 310 309 308 309 311 312 313 315
84 76 337 298 300 329 2 18 348 12 78 76 317 305 92 13 28 116 109 60 91 113 117 169 254 274 271 49 10 328 295 276 283 273 247 248 255 243 235 233 229 228 231 236 241 246 249 252 257 261 267 275 278 279 281 282 285 287 288 288 288 292 295 296 299 302 302 303 303 303 304 305 304 303 303 304 306 307 307 305 304 305 307 308 310 312
94 82 334 295 291 341 15 22 10 11 87 161 228 55 56 352 57 114 100 42 303 193 136 217 264 255 246 205 241 286 287 275 272 265 242 237 246 249 245 240 236 234 235 240 246 250 254 257 260 264 267 271 275 279 281 281 282 284 285 285 286 290 293 298 301 301 300 301 301 301 302 302 301 300 300 300 301 302 302 301 301 302 304 305 307 309
88 105 32 326 356 6 354 355 15 30 22 239 131 113 114 5 5 115 124 118 221 193 112 292 268 280 285 191 150 198 358 11 250 265 261 245 241 244 245 242 239 239 240 243 247 251 256 260 262 266 269 271 275 278 278 278 278 279 280 281 285 289 293 297 298 297 298 298 298 299 300 299 299 298 297 297 297 296 296 296 298 300 301 303 305 306
42 99 93 284 3 356 324 309 3 43 43 57 103 119 155 196 121 119 123 143 169 152 113 207 269 279 251 223 58 6 12 24 289 246 247 243 241 241 244 244 241 241 242 245 249 254 259 264 268 272 274 275 276 276 276 275 274 274 277 280 284 288 292 293 294 294 296 296 297 297 297 296 295 294 293 292 291 291 291 292 294 296 298 300 301 303
286 86 111 197 193 211 306 21 352 37 49 78 111 114 323 344 40 87 62 302 188 143 134 151 241 241 201 207 306 307 326 335 310 281 255 249 249 247 249 250 248 247 249 252 256 260 265 269 273 275 277 277 276 274 273 271 271 273 276 281 284 287 290 291 292 293 293 294 294 293 293 292 291 290 290 289 288 287 287 288 290 292 294 295 296 300
285 44 101 149 187 200 53 30 2 349 10 57 101 83 89 65 346 115 89 7 354 152 155 129 138 117 83 151 251 291 314 318 300 292 288 279 275 269 260 257 257 257 257 260 264 267 270 272 274 274 274 273 272 271 270 270 272 274 277 281 284 286 288 289 290 291 291 292 292 292 293 294 294 294 293 292 291 289 288 287 287 289 291 291 294 300
338 45 74 55 36 54 50 22 347 333 337 338 352 6 49 62 236 158 105 89 1 7 263 117 127 110 65 154 228 282 304 295 286 279 281 288 294 293 286 276 272 270 269 270 272 273 274 274 274 273 272 271 270 270 271 273 274 276 279 281 284 286 288 290 291 292 294 295 297 298 300 301 301 300 298 297 295 294 293 291 289 289 289 292 297 302
357 73 71 57 31 25 17 18 305 275 287 291 316 1 5 330 253 317 126 148 129 61 267 267 100 108 123 168 221 256 280 281 277 270 275 290 304 311 312 307 296 290 289 289 287 286 285 283 280 278 275 273 273 273 273 274 275 276 279 283 286 289 291 293 294 297 300 302 304 306 307 306 305 303 300 299 298 297 297 296 294 293 294 297 301 304
5 78 73 80 58 265 225 161 172 239 258 255 251 85 265 299 1 339 33 127 142 163 220 230 141 139 142 148 227 258 277 281 280 277 277 291 308 314 315 314 310 305 302 300 299 297 295 292 289 286 283 280 279 277 275 274 275 278 283 288 291 293 294 296 299 303 306 307 309 310 311 309 306 303 301 300 299 299 300 299 299 299 300 302 304 305
333 117 105 127 130 142 180 181 187 211 235 253 43 52 357 45 76 82 74 97 185 164 353 254 154 134 110 117 228 259 283 287 282 280 282 295 305 309 314 317 313 308 305 304 303 302 301 301 299 296 291 285 281 280 279 278 280 284 289 293 295 295 298 300 303 306 307 310 312 314 315 312 307 304 302 301 302 302 303 303 303 303 304 305 307 309
25 65 346 168 138 131 141 156 160 154 160 140 15 212 207 82 336 294 117 204 215 136 150 248 150 95 112 187 245 250 268 286 282 285 293 300 303 309 321 321 316 312 311 312 311 309 307 306 306 305 301 293 284 281 282 283 285 290 294 297 299 301 303 305 305 307 309 312 315 317 318 315 309 305 304 304 304 305 305 305 305 306 307 309 310 311
112 80 32 351 55 49 62 67 21 26 127 159 182 197 206 207 312 288 240 272 134 137 185 238 266 346 255 215 228 223 224 265 288 298 306 309 308 313 317 316 316 319 324 324 320 317 314 313 312 312 309 304 295 288 288 289 292 298 301 303 305 306 307 308 308 309 312 315 317 318 318 314 309 306 305 305 306 306 307 307 308 310 310 311 312 311
146 78 54 36 13 3 9 26 2 358 81 165 167 172 199 205 195 238 263 323 134 148 208 234 184 253 269 187 204 222 242 279 292 299 307 311 313 316 318 319 323 328 331 329 327 326 326 326 324 320 315 310 304 298 296 298 301 306 309 311 312 311 310 309 309 312 314 316 317 317 317 314 311 309 308 307 307 308 310 311 311 311 311 311 310 310
155 65 60 281 22 11 339 346 334 333 24 336 233 197 203 194 191 215 242 219 204 219 355 88 174 239 267 274 262 260 274 285 288 293 299 306 315 321 322 322 325 328 328 328 330 333 333 331 331 329 326 319 312 308 305 306 309 312 315 317 316 313 310 309 310 313 315 316 316 316 316 315 313 312 310 310 311 312 312 312 311 310 310 311 311 311
127 89 98 166 78 50 17 8 331 284 1 285 249 223 212 207 214 236 272 273 247 271 310 129 252 270 271 269 276 284 287 282 281 288 296 305 313 314 314 318 322 327 329 330 332 333 334 334 333 332 330 325 319 313 310 310 312 314 317 317 314 311 310 310 311 313 313 314 314 314 315 314 313 313 313 314 315 314 313 311 311 311 312 313 313 314
351 97 119 177 148 69 38 31 47 72 85 269 255 222 202 209 234 249 263 245 242 273 275 231 269 279 266 252 270 280 283 277 274 283 296 306 311 308 312 320 325 330 333 332 331 331 331 331 330 328 326 321 314 307 306 308 310 313 315 314 311 310 310 309 310 310 310 311 313 314 314 314 315 316 317 316 315 314 313 313 314 315 316 317 317 318
4 102 136 208 188 89 34 11 15 12 273 265 270 233 193 186 213 223 217 205 201 206 174 175 246 269 227 225 276 274 271 273 274 283 297 306 310 310 315 321 326 331 331 328 327 327 326 324 321 318 317 313 305 298 299 302 306 310 311 310 309 309 309 309 309 310 311 312 314 314 315 317 318 318 318 317 316 316 316 317 318 319 320 321 321 322
10 121 134 313 265 109 14 346 325 302 266 208 287 217 178 185 213 223 226 225 214 194 163 176 208 163 114 281 289 281 277 285 292 298 304 307 310 313 317 320 324 326 325 324 323 321 320 317 314 310 309 307 300 293 293 298 304 308 309 309 311 311 311 311 311 312 314 315 315 317 319 319 319 319 319 319 319 320 321 322 323 323 323 323 323 324
21 45 86 326 307 126 324 318 294 279 144 92 40 96 154 192 204 208 230 223 205 206 232 281 298 294 268 250 258 279 286 293 300 303 305 305 307 312 315 317 320 320 320 320 318 316 315 313 310 309 308 306 301 295 294 297 303 307 309 310 312 313 313 313 314 315 316 316 318 320 321 321 320 321 321 322 323 324 325 325 324 324 324 324 324 324
66 63 94 330 348 117 257 272 221 193 85 67 61 110 7 311 210 228 261 246 206 212 240 269 276 267 263 265 272 282 288 294 299 301 305 308 307 308 310 313 317 319 319 319 318 316 316 315 314 312 311 309 305 300 297 299 301 304 308 311 312 313 314 315 316 318 318 319 321 323 323 323 323 324 324 325 326 326 326 325 324 324 324 324 324 324
112 118 113 65 349 299 257 119 312 327 52 87 138 153 221 328 197 251 278 251 208 206 216 239 260 262 268 278 285 291 298 302 302 302 310 319 319 314 314 317 320 321 320 320 319 317 316 316 313 311 309 308 306 303 300 300 301 304 308 311 313 315 316 317 319 320 320 322 325 325 326 326 326 326 326 326 326 326 325 324 324 325 325 324 323 323
75 145 148 53 38 44 36 268 286 306 296 197 194 178 187 199 186 251 304 261 197 195 199 213 249 261 265 277 289 298 306 307 302 303 320 335 330 322 318 317 318 318 316 315 314 311 311 311 307 306 305 304 305 304 302 302 303 306 310 313 316 317 319 321 322 323 324 326 327 327 328 327 326 326 326 326 326 325 325 325 325 326 325 324 323 322
22 325 207 125 52 94 106 286 289 318 214 169 127 144 180 184 144 166 277 293 184 195 200 204 230 254 262 277 291 300 311 308 294 301 340 336 326 320 315 312 312 312 311 312 311 309 309 307 305 305 304 304 306 305 304 305 307 310 314 317 319 321 324 324 324 325 326 327 327 328 328 327 326 326 326 326 326 325 325 326 326 326 325 324 322 322
50 5 274 127 108 160 179 28 194 198 240 33 74 112 173 180 139 147 253 256 151 195 201 203 225 251 265 280 289 298 312 304 294 316 331 325 320 314 311 310 311 311 311 312 312 310 309 307 307 308 307 307 308 308 308 310 311 314 317 319 321 324 325 324 323 324 325 326 327 327 327 327 327 327 326 326 325 325 326 326 325 325 324 323 322 322
52 16 322 112 89 114 137 145 225 229 260 35 112 144 158 162 162 246 291 226 162 196 204 208 231 257 275 284 284 273 269 284 295 307 313 316 316 313 311 312 313 313 312 312 311 309 308 309 310 310 310 309 310 310 311 312 313 315 317 319 323 325 323 321 322 324 325 326 327 327 327 327 327 326 326 325 325 325 325 325 325 324 323 323 323 322
36 14 3 70 82 149 184 290 283 266 243 197 175 161 152 150 194 261 332 80 135 239 261 243 254 274 284 283 277 264 269 282 291 299 307 314 315 313 314 314 313 312 312 312 311 310 309 309 310 311 311 311 311 312 313 312 313 315 316 319 324 324 319 320 322 324 325 325 326 326 326 326 325 325 325 324 324 324 325 325 324 323 324 324 323 322
108 74 77 94 88 107 111 281 279 286 219 171 152 149 156 159 197 191 57 45 358 316 306 285 284 291 289 283 282 282 288 296 300 303 310 315 314 315 317 317 315 314 313 314 315 315 312 311 312 312 312 313 314 314 313 312 313 315 317 322 324 319 317 321 323 323 324 325 325 325 325 325 324 324 324 324 325 325 325 325 324 324 325 325 323 323
158 155 179 179 160 112 21 261 282 329 203 168 149 138 184 212 278 331 325 322 315 311 306 297 298 302 298 294 295 296 299 305 309 312 315 316 316 318 320 319 318 316 316 317 318 318 314 311 312 313 314 316 317 315 312 311 312 315 318 321 319 316 318 322 322 322 323 324 324 324 324 324 324 324 324 325 326 325 325 325 325 326 326 325 325 325
190 198 272 216 186 158 55 193 127 42 161 172 171 188 229 229 268 299 307 309 307 307 306 302 303 308 307 303 304 305 306 309 314 318 317 316 317 319 319 319 318 318 318 319 319 318 314 311 311 314 317 319 319 316 312 310 312 315 318 317 316 317 320 321 320 321 322 323 323 323 323 323 323 324 326 327 327 325 325 327 328 327 327 327 328 329
203 194 241 255 207 204 253 251 255 316 192 194 210 246 263 265 279 289 293 298 302 305 308 306 308 313 312 307 306 308 310 315 318 318 316 316 317 318 318 318 318 319 319 318 317 317 313 310 311 314 318 321 320 315 311 311 313 314 315 315 317 319 320 319 320 321 321 321 322 322 322 323 324 326 328 328 326 327 329 330 329 329 330 331 332 332
225 198 176 204 239 261 269 262 259 266 268 252 246 258 270 280 288 292 293 296 302 310 311 309 311 315 313 309 308 309 313 318 318 316 316 316 316 316 318 318 319 321 319 317 317 317 312 310 312 314 318 321 320 314 312 312 312 313 314 316 318 319 319 319 319 320 320 320 321 322 323 324 326 328 329 328 328 330 332 332 332 331 333 334 334 333
223 194 196 230 293 284 272 257 247 256 270 276 276 275 277 285 295 299 299 302 309 313 311 309 310 311 309 309 309 311 314 316 316 316 315 314 314 316 319 321 321 320 319 317 317 315 312 312 314 315 317 320 319 315 312 311 311 312 314 317 318 317 318 318 319 319 319 319 321 323 325 327 329 329 329 330 332 334 334 334 335 335 335 335 334 334
178 180 203 226 211 227 269 285 284 282 285 289 288 283 286 298 305 304 305 308 309 309 309 310 310 308 308 310 312 314 313 311 313 315 313 311 314 317 319 321 320 318 317 316 316 315 314 314 315 315 316 318 318 315 312 311 311 313 315 316 316 316 317 318 317 318 319 320 322 325 327 330 331 330 331 333 335 335 335 337 338 337 335 334 335 337
148 171 196 200 227 256 275 281 282 285 292 295 288 287 303 313 311 307 309 310 308 309 311 312 310 308 309 311 313 312 310 306 308 312 311 310 313 317 318 319 317 314 314 315 315 316 315 315 315 315 316 319 318 315 312 311 312 313 314 315 316 316 316 316 316 317 319 321 325 328 330 332 332 332 333 335 335 336 337 339 338 337 335 334 336 341
166 183 174 170 269 267 254 261 271 287 291 285 285 293 303 306 304 303 306 308 309 311 313 311 308 307 307 309 311 310 307 306 309 312 309 310 313 315 315 314 311 311 313 315 315 316 316 315 315 316 318 320 317 313 312 312 312 313 314 314 315 315 315 315 315 317 320 324 328 332 333 333 333 334 336 336 336 337 338 339 338 337 337 338 340 346
201 207 192 191 222 245 257 270 279 275 275 283 292 300 302 304 304 302 304 307 309 311 312 308 305 306 307 308 309 309 309 311 314 312 310 311 315 316 313 312 311 312 314 315 315 316 317 317 316 317 319 319 316 313 312 312 312 313 314 314 315 315 314 314 316 319 324 328 332 335 335 334 335 336 337 337 338 338 338 337 338 339 341 344 345 346
Height
1515 1517 1521 1522 1524 1525 1524 1525 1523 1517 1516 1521 1527 1534 1543 1552 1561 1564 1564 1565 1561 1564 1574 1575 1576 1582 1585 1587 1588 1588 1589 1588 1589 1589 1588 1588 1587 1588 1587 1586 1586 1585 1585 1584 1584 1585 1584 1584 1584 1584 1584 1583 1583 1583 1583 1583 1582 1581 1581 1580 1580 1579 1578 1578 1577 1576 1576 1575 1574 1573 1571 1570 1569 1568 1567 1565 1564 1563 1561 1560 1559 1557 1556 1555 1553 1552
1516 1520 1527 1529 1529 1529 1528 1526 1522 1519 1522 1526 1532 1541 1549 1556 1564 1566 1564 1565 1563 1566 1579 1580 1578 1584 1586 1587 1588 1588 1588 1588 1589 1589 1588 1588 1588 1588 1588 1587 1586 1585 1585 1585 1584 1585 1585 1584 1584 1584 1584 1584 1584 1584 1584 1583 1582 1581 1581 1580 1580 1579 1579 1578 1577 1576 1576 1575 1573 1572 1571 1570 1568 1567 1566 1565 1563 1562 1561 1559 1558 1557 1555 1554 1552 1551
1519 1525 1531 1532 1531 1530 1529 1525 1522 1523 1527 1531 1538 1545 1554 1559 1562 1566 1567 1566 1564 1567 1579 1582 1580 1585 1587 1587 1589 1588 1588 1588 1588 1589 1588 1588 1588 1588 1588 1586 1586 1586 1585 1585 1585 1585 1585 1585 1584 1584 1585 1585 1584 1584 1584 1583 1582 1581 1581 1580 1579 1579 1578 1577 1577 1576 1575 1574 1573 1571 1570 1569 1568 1566 1565 1564 1563 1561 1560 1559 1558 1556 1555 1553 1552 1550
1525 1530 1533 1533 1532 1530 1528 1526 1524 1526 1531 1536 1541 1547 1555 1558 1556 1563 1570 1569 1566 1568 1577 1580 1580 1585 1588 1588 1588 1588 1588 1588 1588 1588 1587 1587 1587 1587 1587 1586 1586 1585 1585 1585 1585 1585 1585 1585 1585 1585 1585 1585 1584 1584 1583 1582 1581 1581 1580 1580 1579 1578 1578 1577 1576 1575 1574 1573 1572 1571 1569 1568 1567 1565 1564 1563 1562 1561 1559 1558 1557 1555 1554 1552 1551 1549
1531 1534 1534 1533 1532 1528 1527 1529 1527 1528 1536 1541 1544 1547 1553 1556 1556 1563 1570 1569 1569 1574 1577 1577 1580 1586 1587 1587 1587 1587 1588 1588 1587 1588 1587 1586 1586 1586 1586 1586 1585 1585 1585 1585 1585 1585 1585 1585 1585 1585 1584 1584 1584 1583 1582 1582 1581 1581 1580 1579 1578 1578 1577 1576 1575 1574 1573 1572 1571 1570 1568 1567 1566 1565 1564 1562 1561 1560 1559 1558 1556 1554 1553 1551 1549 1548
1534 1535 1533 1532 1531 1529 1529 1532 1531 1530 1537 1546 1551 1550 1550 1555 1559 1564 1565 1564 1570 1579 1581 1579 1580 1584 1587 1586 1585 1585 1586 1586 1586 1586 1586 1585 1585 1585 1585 1585 1585 1584 1584 1584 1584 1584 1585 1585 1585 1584 1584 1584 1583 1583 1582 1582 1581 1580 1580 1579 1578 1577 1576 1575 1574 1573 1572 1571 1570 1569 1568 1567 1566 1565 1563 1562 1561 1560 1558 1556 1555 1553 1551 1549 1548 1546
1540 1537 1534 1533 1532 1532 1530 1533 1536 1534 1534 1546 1555 1553 1550 1552 1558 1563 1561 1558 1566 1577 1582 1581 1576 1578 1585 1584 1582 1584 1585 1584 1585 1584 1584 1584 1583 1584 1584 1584 1584 1583 1584 1584 1584 1584 1584 1584 1584 1584 1584 1583 1583 1582 1582 1581 1580 1580 1579 1578 1577 1576 1575 1574 1573 1572 1571 1571 1570 1569 1568 1567 1565 1564 1562 1561 1559 1558 1556 1555 1553 1551 1549 1548 1546 1544
1545 1539 1536 1535 1534 1534 1533 1535 1540 1535 1533 1547 1557 1555 1553 1552 1555 1560 1557 1557 1566 1575 1579 1579 1572 1572 1579 1582 1582 1586 1586 1584 1583 1581 1581 1581 1582 1583 1582 1583 1583 1583 1583 1583 1583 1584 1584 1584 1584 1583 1583 1583 1582 1582 1581 1580 1579 1579 1578 1577 1576 1575 1574 1574 1573 1572 1571 1570 1569 1568 1566 1565 1564 1562 1561 1559 1558 1556 1554 1553 1551 1550 1548 1546 1545 1543
1547 1544 1543 1540 1536 1538 1541 1543 1543 1537 1539 1553 1557 1555 1557 1556 1556 1556 1554 1559 1566 1569 1573 1577 1573 1568 1572 1580 1584 1586 1585 1581 1577 1575 1576 1579 1580 1581 1581 1581 1582 1582 1582 1582 1583 1583 1583 1583 1583 1582 1582 1582 1581 1580 1580 1579 1578 1578 1577 1576 1575 1575 1574 1573 1572 1571 1570 1569 1567 1566 1565 1564 1562 1561 1559 1558 1556 1554 1552 1551 1549 1548 1546 1545 1543 1541
1548 1548 1548 1543 1542 1545 1548 1548 1544 1539 1543 1554 1557 1557 1560 1558 1556 1553 1553 1560 1563 1563 1573 1581 1579 1569 1565 1573 1580 1583 1581 1575 1570 1571 1573 1576 1578 1579 1580 1580 1580 1581 1581 1581 1582 1582 1582 1582 1581 1581 1581 1580 1580 1579 1579 1578 1578 1577 1576 1575 1574 1574 1572 1572 1571 1569 1568 1567 1566 1565 1564 1562 1561 1559 1558 1556 1554 1552 1550 1549 1547 1546 1544 1543 1541 1539
1551 1550 1548 1547 1550 1551 1549 1548 1546 1543 1543 1552 1556 1556 1557 1554 1553 1553 1555 1560 1561 1565 1578 1587 1586 1576 1565 1565 1569 1572 1573 1569 1567 1570 1572 1574 1576 1577 1578 1579 1579 1579 1579 1580 1580 1580 1580 1581 1581 1580 1580 1579 1579 1578 1578 1577 1576 1575 1575 1574 1573 1572 1571 1570 1569 1568 1567 1566 1565 1564 1562 1561 1559 1557 1556 1554 1552 1551 1549 1547 1545 1543 1542 1540 1538 1537
1551 1549 1550 1552 1553 1552 1549 1548 1551 1549 1547 1551 1551 1549 1552 1554 1555 1559 1561 1561 1562 1569 1583 1589 1590 1584 1570 1562 1563 1565 1567 1568 1568 1568 1570 1572 1573 1575 1576 1576 1577 1577 1577 1578 1578 1579 1580 1580 1580 1579 1578 1578 1577 1577 1577 1576 1575 1574 1573 1572 1571 1571 1570 1569 1568 1567 1566 1564 1563 1562 1560 1559 1557 1555 1554 1552 1550 1549 1547 1544 1543 1540 1539 1537 1535 1533
1553 1553 1554 1553 1553 1554 1551 1550 1553 1553 1550 1550 1548 1546 1554 1560 1562 1567 1571 1569 1568 1575 1587 1590 1590 1584 1568 1559 1562 1564 1565 1568 1569 1568 1569 1570 1570 1572 1573 1573 1574 1575 1575 1576 1577 1578 1579 1578 1578 1578 1577 1577 1576 1575 1575 1574 1573 1572 1571 1571 1570 1569 1568 1567 1566 1565 1564 1563 1561 1560 1558 1556 1555 1553 1551 1549 1547 1546 1544 1541 1539 1538 1535 1533 1532 1530
1556 1555 1555 1555 1555 1556 1555 1553 1552 1554 1552 1550 1549 1549 1554 1562 1568 1577 1585 1583 1578 1580 1589 1593 1590 1578 1563 1558 1561 1563 1565 1567 1568 1569 1569 1569 1570 1570 1571 1571 1572 1573 1574 1575 1576 1577 1577 1577 1576 1576 1576 1575 1575 1574 1573 1573 1572 1571 1570 1569 1568 1568 1567 1566 1564 1563 1562 1560 1559 1557 1556 1554 1552 1550 1549 1547 1545 1543 1541 1539 1536 1535 1533 1531 1529 1527
1560 1561 1564 1565 1562 1560 1560 1558 1557 1558 1555 1557 1559 1553 1552 1558 1561 1571 1579 1575 1575 1581 1588 1594 1587 1569 1560 1562 1564 1565 1567 1568 1568 1569 1568 1568 1569 1569 1570 1571 1571 1572 1574 1574 1575 1575 1575 1575 1575 1574 1574 1573 1573 1573 1572 1571 1570 1569 1568 1567 1566 1566 1565 1564 1562 1561 1559 1558 1557 1555 1553 1552 1550 1548 1546 1544 1542 1540 1538 1536 1534 1532 1530 1528 1526 1524
1566 1571 1571 1569 1568 1566 1564 1564 1564 1562 1557 1561 1563 1555 1556 1562 1565 1577 1586 1583 1582 1580 1582 1587 1579 1565 1562 1565 1566 1567 1568 1568 1568 1568 1568 1568 1569 1569 1569 1570 1571 1571 1573 1573 1573 1573 1573 1574 1573 1573 1572 1572 1571 1571 1570 1569 1568 1567 1566 1565 1564 1564 1563 1562 1560 1559 1557 1556 1554 1553 1551 1549 1547 1545 1543 1541 1539 1537 1535 1533 1531 1529 1527 1525 1523 1521
1566 1573 1572 1569 1569 1568 1566 1566 1567 1563 1559 1560 1560 1561 1568 1572 1573 1579 1589 1598 1591 1573 1575 1584 1572 1562 1563 1563 1566 1569 1566 1567 1567 1567 1568 1568 1568 1569 1569 1569 1570 1570 1571 1572 1571 1571 1572 1572 1571 1571 1570 1570 1569 1569 1568 1568 1567 1565 1564 1563 1562 1561 1560 1560 1558 1557 1555 1553 1552 1550 1549 1547 1545 1543 1541 1539 1536 1535 1533 1530 1528 1526 1524 1522 1520 1517
1562 1569 1572 1570 1568 1568 1569 1568 1567 1567 1564 1559 1558 1568 1574 1575 1575 1570 1572 1585 1580 1564 1574 1586 1575 1566 1563 1559 1562 1566 1564 1564 1566 1566 1567 1567 1567 1568 1567 1567 1568 1569 1569 1570 1569 1570 1570 1569 1569 1569 1568 1568 1567 1567 1566 1565 1565 1563 1562 1561 1560 1559 1558 1557 1556 1554 1553 1551 1549 1548 1546 1544 1543 1541 1538 1536 1534 1532 1529 1527 1525 1523 1520 1519 1517 1514
1562 1564 1571 1573 1570 1571 1571 1568 1566 1567 1567 1563 1564 1573 1571 1565 1564 1562 1566 1572 1568 1569 1579 1581 1579 1575 1565 1559 1560 1561 1563 1563 1565 1566 1565 1565 1566 1565 1566 1566 1567 1568 1568 1568 1568 1568 1567 1567 1567 1566 1566 1566 1565 1564 1564 1563 1562 1561 1560 1559 1558 1556 1555 1554 1553 1551 1550 1548 1546 1544 1543 1541 1539 1537 1535 1533 1530 1528 1525 1523 1522 1520 1517 1515 1513 1511
1563 1559 1565 1572 1570 1571 1570 1568 1570 1571 1571 1569 1568 1573 1574 1570 1567 1568 1577 1573 1563 1572 1580 1573 1573 1568 1560 1562 1562 1560 1563 1563 1564 1565 1564 1564 1565 1565 1565 1566 1566 1567 1566 1566 1566 1566 1565 1565 1565 1564 1563 1563 1562 1562 1561 1560 1559 1558 1558 1557 1555 1554 1553 1551 1550 1548 1546 1545 1543 1540 1538 1537 1535 1533 1530 1528 1526 1523 1521 1519 1518 1516 1514 1512 1509 1507
1563 1555 1561 1568 1567 1568 1573 1578 1583 1582 1579 1574 1569 1569 1573 1580 1581 1577 1586 1592 1578 1571 1571 1567 1565 1560 1557 1563 1564 1561 1563 1564 1565 1565 1564 1564 1564 1563 1564 1564 1564 1564 1564 1564 1563 1563 1563 1562 1562 1562 1561 1560 1560 1559 1558 1557 1557 1556 1555 1554 1552 1551 1549 1548 1546 1545 1543 1541 1539 1537 1534 1533 1531 1529 1526 1524 1521 1519 1516 1515 1514 1512 1510 1507 1505 1504
1564 1559 1564 1571 1571 1575 1583 1590 1594 1592 1589 1585 1579 1576 1575 1579 1578 1565 1573 1600 1601 1585 1579 1573 1562 1557 1560 1563 1563 1563 1564 1564 1565 1564 1562 1563 1562 1562 1563 1562 1562 1562 1561 1562 1561 1561 1561 1560 1559 1559 1558 1557 1556 1555 1555 1554 1554 1553 1552 1551 1549 1548 1546 1545 1543 1541 1539 1538 1535 1533 1531 1529 1527 1525 1522 1520 1517 1515 1513 1511 1510 1508 1506 1503 1502 1500
1571 1567 1572 1582 1585 1587 1590 1593 1594 1592 1593 1591 1585 1586 1585 1581 1574 1559 1559 1582 1597 1600 1601 1588 1568 1558 1560 1563 1564 1564 1565 1564 1564 1564 1562 1562 1561 1561 1562 1561 1561 1561 1560 1560 1559 1559 1559 1557 1557 1556 1555 1554 1553 1553 1552 1551 1550 1550 1549 1548 1546 1545 1543 1542 1540 1538 1536 1535 1532 1531 1528 1526 1524 1521 1518 1516 1513 1511 1510 1508 1506 1504 1502 1500 1498 1495
1573 1570 1576 1585 1588 1588 1590 1594 1595 1594 1594 1589 1584 1588 1588 1582 1579 1573 1569 1573 1581 1590 1590 1575 1564 1558 1557 1564 1565 1563 1565 1564 1563 1564 1563 1562 1561 1561 1561 1560 1560 1559 1559 1559 1558 1557 1556 1555 1555 1553 1552 1552 1551 1550 1549 1548 1548 1546 1546 1545 1543 1542 1541 1539 1537 1536 1533 1532 1529 1527 1525 1522 1520 1517 1515 1513 1510 1509 1507 1505 1503 1501 1499 1496 1493 1491
1570 1572 1573 1573 1575 1577 1579 1582 1584 1587 1590 1586 1585 1590 1589 1588 1590 1585 1584 1578 1572 1583 1585 1565 1556 1557 1558 1564 1565 1563 1565 1564 1563 1564 1563 1562 1561 1560 1560 1560 1559 1558 1558 1557 1556 1555 1554 1553 1552 1551 1550 1549 1548 1547 1546 1545 1545 1544 1543 1543 1541 1539 1538 1536 1535 1533 1530 1529 1526 1524 1522 1519 1516 1514 1512 1510 1508 1506 1504 1502 1499 1497 1495 1492 1489 1486
1575 1581 1576 1563 1558 1559 1560 1564 1568 1575 1583 1585 1588 1592 1590 1592 1591 1582 1579 1570 1563 1586 1597 1571 1553 1555 1559 1563 1563 1563 1565 1563 1563 1563 1562 1562 1561 1559 1560 1559 1558 1558 1556 1556 1555 1554 1553 1552 1550 1549 1547 1546 1545 1544 1544 1543 1542 1542 1541 1540 1539 1537 1536 1534 1532 1530 1528 1526 1523 1520 1518 1516 1513 1511 1509 1507 1505 1502 1500 1498 1495 1493 1491 1488 1485 1482
1582 1589 1589 1577 1565 1562 1564 1572 1580 1581 1579 1581 1585 1589 1590 1592 1593 1585 1576 1565 1566 1586 1588 1570 1564 1561 1557 1560 1562 1562 1564 1563 1563 1562 1561 1561 1560 1559 1560 1558 1557 1557 1556 1555 1554 1552 1552 1550 1549 1548 1546 1544 1544 1542 1542 1541 1540 1540 1539 1538 1537 1535 1533 1531 1529 1527 1525 1522 1520 1517 1515 1513 1510 1508 1506 1503 1501 1499 1496 1494 1492 1489 1487 1484 1481 1479
1576 1578 1592 1594 1585 1586 1589 1590 1593 1589 1583 1582 1583 1585 1589 1592 1594 1588 1575 1570 1575 1575 1564 1566 1578 1568 1555 1558 1561 1561 1563 1563 1562 1562 1560 1560 1560 1559 1558 1557 1556 1556 1554 1554 1553 1551 1550 1549 1547 1546 1544 1543 1542 1541 1540 1540 1539 1538 1536 1535 1534 1532 1530 1528 1526 1524 1522 1519 1517 1514 1512 1509 1507 1505 1502 1500 1497 1495 1493 1491 1488 1486 1483 1480 1478 1475
1573 1575 1594 1598 1591 1599 1602 1596 1596 1594 1590 1591 1588 1586 1589 1591 1591 1585 1578 1580 1580 1568 1559 1571 1582 1570 1558 1560 1560 1560 1563 1562 1560 1561 1560 1559 1559 1557 1557 1556 1555 1554 1553 1552 1551 1550 1549 1547 1546 1545 1543 1542 1541 1540 1539 1538 1537 1536 1534 1532 1531 1529 1527 1525 1522 1521 1518 1516 1513 1511 1508 1506 1503 1501 1499 1496 1494 1492 1490 1487 1485 1482 1480 1477 1474 1471
1575 1580 1599 1600 1591 1597 1602 1598 1599 1597 1593 1592 1590 1588 1589 1589 1590 1586 1583 1587 1585 1577 1577 1583 1583 1574 1564 1561 1560 1560 1561 1560 1560 1559 1558 1557 1557 1556 1555 1555 1553 1553 1552 1550 1550 1549 1547 1546 1545 1543 1542 1541 1539 1538 1537 1535 1534 1533 1531 1530 1528 1526 1525 1522 1520 1517 1515 1513 1510 1508 1505 1503 1500 1498 1496 1494 1491 1489 1486 1484 1481 1478 1476 1473 1471 1468
1572 1581 1603 1602 1582 1584 1599 1600 1597 1598 1595 1589 1587 1590 1592 1591 1591 1591 1589 1590 1588 1582 1584 1587 1585 1576 1564 1559 1561 1559 1558 1559 1558 1557 1557 1556 1556 1555 1554 1553 1552 1551 1550 1549 1548 1547 1545 1544 1543 1541 1540 1539 1537 1536 1534 1533 1532 1530 1528 1527 1525 1524 1522 1519 1517 1515 1512 1510 1507 1505 1502 1500 1498 1496 1493 1491 1488 1486 1483 1480 1478 1475 1472 1469 1466 1463
1576 1583 1599 1592 1565 1569 1594 1598 1594 1598 1597 1587 1579 1580 1588 1590 1586 1585 1585 1583 1579 1577 1580 1581 1574 1565 1559 1559 1560 1558 1557 1558 1556 1556 1556 1554 1554 1554 1552 1551 1551 1549 1549 1548 1546 1545 1544 1542 1541 1539 1538 1537 1535 1534 1532 1530 1529 1527 1526 1524 1522 1521 1519 1516 1514 1511 1509 1507 1504 1502 1500 1497 1495 1493 1490 1488 1485 1482 1480 1477 1474 1471 1468 1465 1462 1459
1587 1581 1585 1582 1560 1562 1589 1598 1594 1590 1575 1564 1563 1566 1575 1582 1580 1579 1580 1578 1575 1574 1571 1565 1557 1555 1558 1560 1558 1557 1556 1556 1555 1554 1554 1552 1552 1552 1551 1550 1549 1548 1547 1546 1544 1543 1542 1540 1539 1537 1536 1534 1533 1531 1529 1528 1526 1524 1522 1521 1519 1517 1515 1513 1511 1508 1506 1504 1501 1499 1497 1494 1492 1490 1487 1485 1482 1479 1476 1473 1470 1467 1463 1461 1458 1455
1592 1583 1587 1588 1565 1560 1586 1598 1587 1570 1552 1551 1564 1569 1571 1574 1572 1571 1570 1569 1570 1568 1562 1557 1554 1556 1559 1558 1556 1556 1554 1554 1554 1553 1552 1552 1551 1550 1549 1549 1548 1547 1545 1544 1543 1541 1539 1538 1536 1534 1533 1531 1530 1528 1527 1525 1523 1521 1519 1517 1516 1514 1512 1509 1507 1505 1503 1501 1499 1497 1494 1492 1489 1487 1484 1481 1478 1475 1473 1469 1466 1464 1460 1458 1454 1451
1590 1587 1591 1595 1579 1571 1583 1583 1563 1549 1550 1561 1571 1572 1571 1571 1571 1568 1563 1562 1565 1564 1561 1559 1556 1555 1556 1555 1555 1554 1552 1552 1552 1551 1551 1550 1549 1548 1548 1547 1546 1545 1543 1542 1540 1538 1536 1535 1533 1531 1530 1528 1526 1525 1524 1522 1520 1518 1516 1515 1513 1511 1509 1506 1504 1502 1500 1498 1496 1494 1491 1489 1486 1483 1480 1478 1475 1472 1469 1466 1464 1461 1457 1454 1451 1448
1588 1586 1587 1593 1589 1576 1570 1563 1550 1549 1560 1568 1570 1572 1572 1571 1571 1567 1558 1554 1556 1558 1559 1559 1555 1554 1554 1553 1552 1551 1551 1550 1549 1548 1549 1548 1547 1547 1546 1545 1544 1542 1540 1539 1537 1535 1534 1532 1530 1528 1527 1525 1524 1522 1521 1519 1517 1515 1513 1512 1510 1508 1506 1503 1502 1500 1497 1495 1493 1491 1488 1486 1483 1480 1478 1475 1472 1470 1467 1464 1461 1458 1454 1451 1447 1444
1588 1587 1582 1583 1586 1579 1569 1563 1557 1555 1559 1561 1562 1566 1567 1565 1566 1563 1554 1549 1551 1553 1555 1556 1554 1553 1552 1551 1551 1551 1550 1548 1546 1546 1546 1546 1546 1545 1544 1543 1542 1540 1538 1537 1535 1533 1531 1529 1527 1525 1523 1522 1521 1519 1517 1515 1513 1511 1510 1509 1506 1505 1503 1500 1499 1496 1494 1492 1490 1488 1486 1483 1480 1478 1475 1472 1470 1467 1464 1461 1457 1454 1451 1447 1443 1440
1588 1588 1582 1576 1584 1590 1578 1562 1555 1552 1551 1552 1556 1561 1563 1561 1562 1563 1558 1552 1549 1550 1552 1553 1553 1552 1551 1551 1551 1550 1550 1548 1544 1543 1544 1544 1544 1543 1542 1541 1539 1537 1536 1534 1532 1530 1528 1526 1524 1522 1520 1519 1517 1516 1514 1512 1510 1508 1507 1505 1503 1501 1499 1498 1496 1494 1492 1490 1488 1485 1483 1480 1478 1475 1472 1470 1467 1464 1461 1458 1455 1451 1448 1444 1439 1435
1589 1592 1589 1579 1583 1588 1573 1555 1555 1554 1549 1552 1557 1561 1563 1562 1562 1563 1558 1550 1548 1550 1551 1552 1552 1551 1550 1550 1550 1550 1550 1547 1542 1541 1542 1542 1542 1541 1540 1538 1536 1535 1533 1530 1529 1526 1523 1522 1520 1518 1517 1516 1514 1513 1511 1509 1507 1505 1503 1502 1500 1499 1497 1495 1493 1492 1490 1488 1485 1483 1481 1478 1476 1473 1470 1467 1464 1461 1458 1455 1452 1448 1445 1441 1436 1432
1587 1589 1587 1577 1578 1587 1577 1560 1559 1557 1552 1556 1561 1561 1562 1563 1563 1561 1553 1546 1548 1550 1550 1550 1551 1550 1550 1550 1549 1549 1549 1546 1541 1540 1540 1540 1539 1538 1536 1534 1532 1531 1529 1527 1525 1523 1520 1518 1516 1515 1514 1513 1511 1510 1508 1506 1504 1503 1501 1500 1498 1497 1495 1493 1491 1489 1487 1485 1483 1481 1478 1476 1473 1470 1468 1465 1462 1459 1456 1453 1449 1445 1441 1437 1433 1429
1589 1592 1594 1586 1583 1591 1584 1566 1559 1557 1555 1559 1561 1560 1562 1564 1562 1557 1549 1546 1549 1550 1549 1550 1550 1549 1549 1549 1548 1547 1546 1544 1542 1539 1538 1538 1536 1534 1532 1531 1529 1527 1525 1523 1522 1519 1517 1515 1513 1512 1511 1510 1508 1507 1505 1503 1502 1500 1499 1498 1496 1494 1492 1490 1489 1487 1485 1483 1481 1478 1476 1474 1471 1468 1466 1463 1460 1456 1454 1450 1446 1442 1438 1434 1429 1425
1584 1589 1595 1594 1590 1594 1592 1577 1564 1557 1555 1558 1560 1562 1563 1560 1554 1550 1547 1548 1549 1549 1549 1549 1548 1548 1548 1547 1546 1545 1543 1541 1540 1537 1536 1535 1532 1530 1528 1527 1525 1523 1522 1520 1518 1516 1514 1512 1510 1509 1508 1507 1506 1504 1502 1501 1499 1498 1497 1495 1494 1492 1490 1488 1487 1485 1483 1481 1478 1476 1474 1471 1469 1466 1463 1460 1457 1454 1451 1447 1443 1439 1436 1431 1426 1421
1578 1575 1578 1587 1591 1592 1592 1579 1560 1549 1551 1556 1558 1561 1562 1555 1548 1546 1547 1548 1548 1548 1548 1547 1546 1546 1545 1543 1543 1542 1539 1538 1537 1535 1533 1530 1528 1527 1524 1523 1521 1520 1518 1517 1515 1513 1511 1509 1508 1507 1506 1505 1503 1501 1500 1498 1497 1496 1495 1493 1492 1490 1488 1486 1484 1482 1480 1478 1476 1474 1471 1469 1466 1464 1461 1458 1455 1451 1447 1444 1440 1436 1432 1428 1423 1417
1578 1572 1570 1579 1583 1579 1573 1562 1550 1544 1549 1553 1551 1552 1553 1550 1546 1546 1547 1547 1546 1546 1546 1545 1544 1544 1543 1541 1540 1538 1536 1535 1533 1531 1529 1526 1524 1523 1521 1519 1518 1516 1515 1513 1512 1510 1509 1507 1505 1504 1503 1502 1501 1499 1497 1496 1494 1493 1492 1491 1489 1487 1486 1484 1482 1480 1478 1476 1473 1471 1469 1466 1464 1462 1459 1455 1452 1448 1444 1440 1436 1433 1429 1424 1419 1413
1572 1571 1569 1572 1575 1570 1560 1552 1547 1547 1549 1551 1549 1548 1548 1547 1547 1547 1547 1546 1546 1545 1544 1543 1541 1541 1541 1539 1537 1535 1534 1532 1530 1528 1526 1523 1521 1519 1517 1516 1514 1513 1512 1510 1509 1508 1506 1504 1503 1502 1501 1500 1499 1497 1495 1494 1492 1491 1490 1488 1487 1485 1484 1482 1479 1477 1475 1473 1471 1468 1466 1464 1461 1459 1457 1453 1449 1445 1441 1437 1433 1428 1424 1420 1415 1409
1571 1573 1571 1570 1570 1566 1555 1547 1547 1548 1548 1548 1548 1547 1547 1547 1546 1545 1545 1544 1543 1542 1541 1540 1539 1538 1538 1537 1535 1533 1531 1529 1527 1525 1522 1520 1518 1516 1514 1513 1511 1510 1509 1507 1506 1505 1503 1502 1501 1499 1498 1498 1496 1495 1493 1492 1490 1489 1487 1486 1484 1483 1481 1479 1477 1475 1473 1470 1468 1466 1463 1461 1458 1456 1453 1450 1446 1443 1439 1434 1430 1424 1420 1416 1411 1407
1570 1571 1571 1569 1568 1563 1552 1543 1545 1547 1546 1546 1546 1545 1545 1545 1544 1543 1543 1541 1540 1540 1539 1538 1537 1536 1535 1534 1532 1530 1528 1526 1525 1522 1519 1517 1515 1513 1512 1511 1509 1508 1507 1505 1504 1502 1501 1500 1498 1497 1496 1495 1494 1493 1491 1490 1488 1487 1485 1484 1482 1480 1478 1476 1475 1472 1470 1468 1466 1463 1461 1458 1455 1452 1449 1446 1442 1439 1436 1432 1427 1422 1417 1413 1408 1404
1567 1569 1569 1567 1566 1561 1551 1542 1542 1543 1542 1542 1542 1541 1541 1542 1541 1541 1541 1539 1538 1537 1536 1535 1534 1533 1531 1530 1529 1527 1525 1523 1522 1520 1517 1514 1513 1511 1510 1508 1507 1506 1504 1503 1501 1500 1499 1498 1496 1495 1494 1493 1492 1491 1489 1487 1486 1485 1483 1481 1480 1478 1476 1474 1472 1470 1468 1466 1463 1461 1458 1456 1452 1449 1445 1442 1439 1435 1432 1428 1424 1419 1415 1411 1406 1402
1567 1567 1565 1563 1563 1559 1551 1544 1541 1540 1538 1538 1538 1538 1539 1539 1538 1538 1537 1536 1535 1534 1533 1532 1531 1530 1528 1527 1526 1524 1522 1520 1519 1517 1514 1512 1510 1509 1508 1506 1505 1503 1502 1501 1499 1498 1497 1495 1494 1493 1492 1491 1490 1488 1487 1486 1484 1482 1481 1479 1477 1476 1474 1472 1470 1468 1466 1464 1462 1459 1456 1453 1450 1446 1442 1438 1435 1432 1428 1425 1421 1417 1413 1410 1405 1402
1566 1562 1561 1563 1561 1553 1545 1540 1539 1539 1537 1535 1535 1536 1537 1536 1536 1535 1534 1533 1532 1531 1530 1529 1527 1526 1525 1524 1523 1521 1519 1517 1516 1514 1512 1509 1508 1507 1505 1504 1503 1501 1500 1499 1497 1496 1495 1493 1492 1491 1490 1489 1488 1486 1485 1483 1482 1480 1479 1477 1475 1474 1472 1470 1468 1466 1464 1462 1460 1457 1453 1450 1446 1443 1439 1435 1431 1427 1424 1421 1418 1415 1410 1407 1403 1400
1555 1552 1554 1556 1552 1544 1538 1536 1538 1539 1536 1532 1532 1534 1534 1533 1532 1531 1530 1530 1529 1528 1527 1526 1524 1523 1521 1519 1519 1518 1516 1514 1513 1511 1509 1507 1506 1505 1503 1501 1500 1499 1497 1496 1495 1493 1493 1491 1490 1489 1488 1486 1485 1484 1482 1481 1479 1478 1477 1475 1473 1472 1470 1468 1466 1464 1462 1460 1457 1454 1451 1447 1443 1440 1436 1432 1428 1424 1420 1416 1413 1411 1407 1403 1399 1397